Regional Weather Roundup
Issued by NWS

Home | Current Version | Previous Version | Text Only | Print | Product List | Glossary On
Versions: 1 2 3 4 5 6 7 8 9 10 11 12 13 14 15 16 17 18 19 20 21 22 23 24 25 26 27 28 29 30 31 32 33 34 35 36 37 38 39 40 41 42 43 44 45 46 47 48 49 50
000
ASUS44 KJAN 021810
RWRMS

MISSISSIPPI HOURLY WEATHER ROUNDUP
NATIONAL WEATHER SERVICE JACKSON MS
100 PM CDT TUE SEP 02 2014

NOTE: "FAIR: INDICATES FEW OR NO CLOUDS BELOW 12,000 FEET WITH NO
SIGNIFICANT WEATHER AND/OR OBSTRUCTIONS TO VISIBILITY.

MSZ001>002-007>008-010>013-018>021-025>028-034>036-021900-
NORTHWEST MISSISSIPPI

CITY           SKY/WX    TMP DP  RH WIND       PRES   REMARKS
CLARKSDALE     FAIR      86  75  70 CALM      30.03F HX  95
CLEVELAND      FAIR      86  76  73 W7        30.02F HX  96
GREENWOOD      PTSUNNY   82  74  76 SW9       30.04F
6HR MIN TEMP:  75; 6HR MAX TEMP:  86; 6HR PCP:  0.02;

GREENVILLE     PTSUNNY   84  77  79 SW5       30.03F HX  94
6HR MIN TEMP:  74; 6HR MAX TEMP:  86; 6HR PCP:  0.03;

GRENADA        FAIR      82  73  74 SW8       30.03F
OLIVE BRANCH   PTSUNNY   84  79  84 SW10      30.02F HX  96
OXFORD         PTSUNNY   82  73  74 W7        30.05F
TUNICA         MOCLDY    86  73  66 SW8       30.02F HX  93
$$

MSZ003>006-009-014>017-022>024-029>033-037>039-021900-
NORTHEAST MISSISSIPPI

CITY           SKY/WX    TMP DP  RH WIND       PRES   REMARKS
COLUMBUS AFB   PTSUNNY   81  72  74 W7        30.06R THUNDER
6HR MIN TEMP:  73; 6HR MAX TEMP:  89;

CORINTH        FAIR      86  75  70 W10       30.02F HX  95
GOLDN TRIANGLE TSTM      84  72  65 NW10G17   30.08R
STARKVILLE     TSTM      79  72  78 CALM      30.06S
TUPELO         PTSUNNY   88  73  61 SW9       30.04S HX  95
6HR MIN TEMP:  74; 6HR MAX TEMP:  89;

$$

MSZ040-058-021900-
CENTRAL MISSISSIPPI

CITY           SKY/WX    TMP DP  RH WIND       PRES   REMARKS
JACKSON INTL   PTSUNNY   85  75  72 SW9       30.06F HX  93
6HR MIN TEMP:  76; 6HR MAX TEMP:  86;

JACKSON HAWKNS MOSUNNY   89  76  65 S8        30.06F HX 100
6HR MIN TEMP:  76; 6HR MAX TEMP:  89;

MERIDIAN KEY   MOSUNNY   88  72  58 S8        30.06F HX  94
6HR MIN TEMP:  74; 6HR MAX TEMP:  89; 6HR PCP: TRACE;

MERIDIAN NAS   LGT RAIN  89  72  56 VRB7      30.06F HX  96
6HR MIN TEMP:  74; 6HR MAX TEMP:  90; 6HR PCP: TRACE;

RAYMOND        MOCLDY    86  82  89 S10       30.05F THUNDER HX 105
VICKSBURG      SUNNY     89  74  60 VRB6      30.03F HX  98
6HR MIN TEMP:  78; 6HR MAX TEMP:  90;

$$

MSZ059>079-021900-
SOUTH MISSISSIPPI

CITY           SKY/WX    TMP DP  RH WIND       PRES   REMARKS
BROOKHAVEN     FAIR      84  75  74 SW5       30.09F HX  92
HATTIESBURG    TSTM      83  75  77 SE13      30.07F HX  90
6HR MIN TEMP:  75; 6HR MAX TEMP:  92; 6HR PCP: TRACE;

MCCOMB         MOSUNNY   88  72  58 VRB7      30.07F HX  94
6HR MIN TEMP:  75; 6HR MAX TEMP:  89;

NATCHEZ        MOSUNNY   90  75  62 S10       30.05F HX 100
6HR MIN TEMP:  75; 6HR MAX TEMP:  90;

PINE BELT      MOSUNNY   90  72  55 SW6       30.08F HX  96
6HR MIN TEMP:  73; 6HR MAX TEMP:  90;

$$

MSZ080>082-021900-
COASTAL MISSISSIPPI

CITY           SKY/WX    TMP DP  RH WIND       PRES   REMARKS
BAY ST LOUIS   MOSUNNY  N/A N/A N/A S6        30.06F
BILOXI         PTSUNNY   87  75  67 S8        30.07F HX  96
6HR MIN TEMP:  78; 6HR MAX TEMP:  89;

PASCAGOULA     MOSUNNY   88  74  63 S6        30.06F HX  96
6HR MIN TEMP:  73; 6HR MAX TEMP:  90;

GULFPORT       PTSUNNY   86  75  69 S7        30.07S HX  95
6HR MIN TEMP:  78; 6HR MAX TEMP:  90;

$$


USA.gov is the U.S. government's official web portal to all federal, state and local government web resources and services.